Location: Ladd Observatory
(41.8387°N, 71.3996°W)
Time: 01:21:23
(UTC-04:00)

ISS - Visible Passes

Search period start: 26 September 2016 00:00
Search period end: 06 October 2016 00:00
Orbit: 401 x 409 km, 51.6° (Epoch: 26 September)

Date Brightness Start Highest point End Pass type
(mag) Time Alt. Az. Time Alt. Az. Time Alt. Az.
27 Sep -1.6 19:59:00 10° SSW 20:00:33 20° S 20:00:33 20° S visible
28 Sep -1.4 19:08:05 10° SSE 19:09:52 14° SE 19:11:21 11° ESE visible
28 Sep -1.1 20:42:45 10° WSW 20:44:04 22° WSW 20:44:04 22° WSW visible
29 Sep -3.4 19:50:41 10° SW 19:53:54 65° SE 19:54:39 46° E visible
30 Sep -2.5 18:58:55 10° SSW 19:01:52 33° SE 19:04:50 10° ENE visible
30 Sep -1.5 20:35:20 10° W 20:37:45 31° NW 20:37:45 31° NW visible
01 Oct -2.7 19:42:56 10° WSW 19:46:07 54° NNW 19:48:00 22° NE visible
02 Oct -3.4 18:50:43 10° SW 18:53:57 82° SE 18:57:13 10° ENE visible
02 Oct -1.1 20:28:10 10° WNW 20:30:46 21° NNW 20:30:46 21° NNW visible
03 Oct -1.6 19:35:31 10° W 19:38:26 29° NNW 19:40:46 14° NE visible
04 Oct -2.3 18:43:00 10° WSW 18:46:08 45° NNW 18:49:18 10° NE visible
04 Oct -0.9 20:21:04 10° NW 20:23:14 16° N 20:23:21 16° N visible
05 Oct -1.1 19:28:20 10° WNW 19:30:48 20° NNW 19:33:12 10° NNE visible
